Weather in Taree

Australia     31°54′28″S   152°28′11″E
temp.,
°C
wind,
m/s
gust,
m/s
humid.,
%
clouds,
%
prec.,
mm/h
press.,
hPa
HPBL,
m
17 april, sat
sat1701:00+16se0288100 0.8 1022272
04:00+16s1290100 1.4 1021248
07:00+16sse1392100 3.8 1022260
10:00+15se4891100 10.3 1022554
13:00+15sse4795100 4.4 1020500
16:00+14sse3795100 14.3 1020441
19:00+14s3795100 7.4 1022438
22:00+14ssw4893100 14.4 1022649
18 april, sun
sun1801:00+13sw2491100 1.1 1021326
04:00+13wsw2494100 1.3 1020254
07:00+13wsw249422 0.1 1021193
10:00+17sw24739 0.2 1021724
13:00+20s455616 0.2 10191642
16:00+19s35644 0.2 10181022
19:00+14sw25842 0.1 1020338
22:00+12w239116 0.1 1020153
19 april, mon
mon1901:00+11w24948 0.0 101992
04:00+11w249314 0.0 101899
07:00+11w24900 0.0 1019113
10:00+18w23630 0.0 1019568
13:00+21s12530 0.0 10161135
16:00+19ese236936 0.0 1015300
19:00+14n01843 0.0 1017150
22:00+13nw23943 0.0 101759
20 april, tue
tue2001:00+12nw23935 0.0 101673
04:00+11nw23891 0.0 101563
07:00+11wnw23804 0.0 101680
10:00+19nw245518 0.0 1016418
13:00+22w2446100 0.0 10121013
16:00+21e0063100 0.0 101120
19:00+16nnw2373100 0.0 101254
22:00+14nnw2567100 0.0 101194
21 april, wed
wed2101:00+12nnw22700 0.0 100945
04:00+12wnw23700 0.0 100963
07:00+13wsw511640 0.0 1011500
10:00+17wsw69520 0.0 10131451
13:00+18wsw46480 0.0 10121463
16:00+18sw35560 0.0 1012753
19:00+13w23660 0.0 1014187
22:00+10wnw23810 0.0 101469